RTU MIREA 1 (RS51S)

Last updated on Sun Aug 09 2026 00:03:16 GMT+0000 (Coordinated Universal Time)

1 61785U 24199BC 26220.60841368 .00049243 00000+0 45401-3 0 9998 2 61785 97.2837 99.0413 0009476 89.3782 270.8565 15.67426578142667
UTC large
Height (km)
Speed (km/s)
/
Latitude / Longitude
Inclination (degrees)
Orbital Period (minutes)
Azimuth
Elevation
Range (km)
Doppler Factor

Next 0 passes for location: London (51.5072 / 0.1276)

No passes found over London.
RTU MIREA 1 (RS51S)